Regional Weather Roundup
Issued by NWS

Home | Current Version | Previous Version | Text Only | Print | Product List | Glossary On
Versions: 1 2 3 4 5 6 7 8 9 10 11 12 13 14 15 16 17 18 19 20 21 22 23 24 25 26 27 28 29 30 31 32 33 34 35 36 37 38 39 40 41 42 43 44 45 46 47 48 49 50
000
ASUS43 KLMK 201402
RWRKY
KENTUCKY REGIONAL WEATHER ROUNDUP
NATIONAL WEATHER SERVICE LOUISVILLE KY
900 AM EST MON FEB 20 2017

NOTE "FAIR" INDICATES FEW OR NO CLOUDS BELOW 12,000 FEET
WITH NO SIGNIFICANT WEATHER AND/OR OBSTRUCTIONS TO VISIBILITY.

KYZ001>023-026-027-061>063-070>075-201500-
WESTERN AND SOUTH CENTRAL KENTUCKY

CITY           SKY/WX    TMP DP  RH WIND       PRES   REMARKS
PADUCAH        CLOUDY    52  49  89 SE7       30.12R FOG
HENDERSON      CLOUDY    48  45  87 E6        30.15S
OWENSBORO      PTSUNNY   50  48  93 E7        30.16F FOG
HOPKINSVILLE   CLOUDY    51  51 100 E6        30.15S
BOWLING GREEN  CLOUDY    46  45  96 NE3       30.19S FOG
GLASGOW        NOT AVBL
$$

KYZ024-025-028>034-038-045-046-053-201500-
NORTH CENTRAL KENTUCKY

CITY           SKY/WX    TMP DP  RH WIND       PRES   REMARKS
LOUISVILLE/SDF FOG       42  41  96 CALM      30.23R VSB 1/8
LOUISVILLE/LOU FOG       41  39  93 CALM      30.23R VSB 3/4
FORT KNOX      FOG       41  41 100 NE5       30.19R VSB 1/4
$$

KYZ035>037-039>044-047>052-055>060-089>105-201500-
NORTHEAST KENTUCKY

CITY           SKY/WX    TMP DP  RH WIND       PRES   REMARKS
LEXINGTON      CLOUDY    49  46  90 SE9       30.23S FOG
COVINGTON      FOG       41  41 100 E5        30.24S VSB 1/8
FRANKFORT      FOG       40  38  93 NE3       30.22R VSB<1/4
$$

KYZ054-064>069-076>088-106>120-201500-
SOUTHEAST KENTUCKY

CITY           SKY/WX    TMP DP  RH WIND       PRES   REMARKS
JACKSON        SUNNY     48  44  86 E3        30.25R
LONDON         SUNNY     44  40  85 CALM      30.24S
SOMERSET       CLOUDY    43  43 100 CALM      30.25S
MIDDLESBORO    FOG       39  39 100 CALM      30.28S VSB<1/4
MONTICELLO     MOSUNNY   44  43  96 VRB6      30.25R
$$




USA.gov is the U.S. government's official web portal to all federal, state and local government web resources and services.